Вернуться в каталог

ONEWEB-0545

АктивенСвязьPO
NORAD 54647·PAYLOAD·🇬🇧 United Kingdom

Запущен Dec 8, 2022 с Cape Canaveral Space Force Station

Loading…

Ближайшие Пролёты (ближайшие 24 часа)

TLE

СвежийSource: CelesTrak SupGP

Эпоха: Sep 14, 2026, 23:35 UTC

1 54647C 22166F   26257.98281667 -.00002964  00000+0 -71862-2 0  2577
2 54647  87.9279 226.1056 0002530  95.4977 344.4384 13.21832321    10

Отслеживайте ONEWEB-0545 в реальном времени с AllMySat

Download on the App Store